Weather History for Soldotna, AK

Change the Weather History Date:

Tuesday, August 13, 2013

  Actual Average Record
Temperature  
Mean Temperature 55 °F -  
Max Temperature 57 °F 61 °F 78 °F (1950)
Min Temperature 53 °F 47 °F 34 °F (1961)
Degree Days  
Heating Degree Days 10    
Growing Degree Days 5 (Base 50)    
Moisture  
Dew Point 51 °F    
Average Humidity 86    
Maximum Humidity 94    
Minimum Humidity 72    
Precipitation  
Precipitation 0.00 in - - ()
Sea Level Pressure  
Sea Level Pressure 30.00 in    
Wind  
Wind Speed 3 mph (WSW)    
Max Wind Speed 13 mph    
Max Gust Speed -    
Visibility 8 miles    
Events      
Averages and records for this station are not official NWS values.
T = Trace of Precipitation, MM = Missing Value Source: NWS Daily Summary

Daily Weather History Graph

Daily Weather History Graph

Search for Another Location

Airport:

Trip Planner

Search our weather history database for the weather conditions in past years. The results will help you decide how hot, cold, wet, or windy it might be!

Date:

Astronomy

Aug. 13, 2013 Rise Set
Actual Time 6:12 AM AKDT 10:03 PM AKDT
Civil Twilight 5:18 AM AKDT 10:56 PM AKDT
Nautical Twilight 3:55 AM AKDT 12:17 AM AKDT
Astronomical Twilight Sun does not rise 1:36 AM AKDT
Moon 3:29 PM AKDT (8/13) 11:32 PM AKDT (8/13)
Length of Visible Light 17h 37m
Length of Day
15h 51m
Waxing Crescent, 43% of the Moon is Illuminated
Aug 13
Waxing Crescent
Aug 14
First Quarter
Aug 20
Full
Aug 28
Last Quarter
Sep 5
New

Hourly Weather History & Observations

Time (AKDT) Temp. Dew Point Humidity Pressure Visibility Wind Dir Wind Speed Gust Speed Precip Events Conditions
12:16 AM 57.2 °F 55.4 °F 94% 30.01 in 10.0 mi Calm Calm - N/A   Overcast
12:36 AM 55.4 °F 53.6 °F 94% 30.00 in 7.0 mi Calm Calm - N/A   Overcast
12:56 AM 55.4 °F 53.6 °F 94% 30.00 in 1.0 mi Calm Calm - N/A   Overcast
1:16 AM 55.4 °F 53.6 °F 94% 30.00 in 1.5 mi Calm Calm - N/A   Overcast
1:36 AM 55.4 °F 53.6 °F 94% 30.00 in 10.0 mi Calm Calm - N/A   Overcast
1:56 AM 55.4 °F 53.6 °F 94% 30.00 in 0.8 mi Calm Calm - N/A   Overcast
2:16 AM 55.4 °F 53.6 °F 94% 30.00 in 0.2 mi Calm Calm - N/A   Overcast
2:36 AM 55.4 °F 53.6 °F 94% 30.00 in 0.2 mi East 3.5 mph - N/A   Overcast
2:56 AM 55.4 °F 53.6 °F 94% 30.00 in 2.5 mi Calm Calm - N/A   Overcast
3:16 AM 55.4 °F 53.6 °F 94% 29.99 in 10.0 mi Calm Calm - N/A   Overcast
3:36 AM 55.4 °F 53.6 °F 94% 29.99 in 10.0 mi Calm Calm - N/A   Overcast
3:56 AM 55.4 °F 53.6 °F 94% 29.99 in 10.0 mi Calm Calm - N/A   Overcast
4:16 AM 55.4 °F 53.6 °F 94% 29.98 in 1.5 mi Calm Calm - N/A   Overcast
4:36 AM 55.4 °F 53.6 °F 94% 29.98 in 0.2 mi Calm Calm - N/A   Overcast
4:56 AM 55.4 °F 53.6 °F 94% 29.98 in 0.2 mi Calm Calm - N/A   Overcast
5:16 AM 55.4 °F 53.6 °F 94% 29.98 in 0.2 mi Calm Calm - N/A   Overcast
5:36 AM 55.4 °F 53.6 °F 94% 29.98 in 0.5 mi Calm Calm - N/A   Overcast
5:56 AM 55.4 °F 53.6 °F 94% 29.98 in 1.5 mi East 3.5 mph - N/A   Overcast
6:16 AM 55.4 °F 53.6 °F 94% 29.97 in 0.2 mi East 3.5 mph - N/A   Overcast
6:36 AM 55.4 °F 53.6 °F 94% 29.97 in 0.2 mi East 3.5 mph - N/A   Overcast
6:56 AM 55.4 °F 53.6 °F 94% 29.97 in 0.2 mi East 3.5 mph - N/A   Overcast
7:16 AM 55.4 °F 53.6 °F 94% 29.97 in 0.2 mi ESE 4.6 mph - N/A   Overcast
7:36 AM 55.4 °F 53.6 °F 94% 29.97 in 5.0 mi SE 3.5 mph - N/A   Overcast
7:56 AM 55.4 °F 53.6 °F 94% 29.97 in 10.0 mi Calm Calm - N/A   Overcast
8:16 AM 55.4 °F 51.8 °F 88% 29.97 in 10.0 mi East 4.6 mph - N/A   Overcast
8:36 AM 55.4 °F 51.8 °F 88% 29.97 in 10.0 mi East 3.5 mph - N/A   Overcast
8:56 AM 55.4 °F 53.6 °F 94% 29.98 in 10.0 mi East 3.5 mph - N/A   Overcast
9:16 AM 55.4 °F 53.6 °F 94% 29.98 in 10.0 mi Calm Calm - N/A   Overcast
9:36 AM 57.2 °F 53.6 °F 88% 29.98 in 10.0 mi Calm Calm - N/A   Overcast
9:56 AM 55.4 °F 53.6 °F 94% 29.98 in 6.0 mi West 5.8 mph - N/A   Overcast
10:16 AM 55.4 °F 53.6 °F 94% 29.99 in 8.0 mi WNW 5.8 mph - N/A   Overcast
10:36 AM 55.4 °F 53.6 °F 94% 29.99 in 10.0 mi WSW 5.8 mph - N/A   Overcast
10:56 AM 55.4 °F 51.8 °F 88% 29.99 in 10.0 mi WSW 6.9 mph - N/A   Overcast
11:16 AM 55.4 °F 51.8 °F 88% 30.00 in 10.0 mi West 8.1 mph - N/A   Overcast
11:36 AM 55.4 °F 51.8 °F 88% 30.00 in 10.0 mi WSW 5.8 mph - N/A   Overcast
11:56 AM 55.4 °F 51.8 °F 88% 30.00 in 10.0 mi West 6.9 mph - N/A   Overcast
12:16 PM 55.4 °F 51.8 °F 88% 30.00 in 10.0 mi WSW 5.8 mph - N/A   Overcast
12:36 PM 55.4 °F 51.8 °F 88% 30.00 in 10.0 mi SW 5.8 mph - N/A   Overcast
12:56 PM 55.4 °F 51.8 °F 88% 30.00 in 10.0 mi SW 5.8 mph - N/A   Overcast
1:16 PM 55.4 °F 51.8 °F 88% 30.00 in 10.0 mi WSW 5.8 mph - N/A   Overcast
1:36 PM 55.4 °F 51.8 °F 88% 30.00 in 10.0 mi WSW 8.1 mph - N/A   Overcast
1:56 PM 57.2 °F 51.8 °F 82% 30.00 in 10.0 mi WSW 6.9 mph - N/A   Overcast
2:16 PM 57.2 °F 51.8 °F 82% 30.00 in 10.0 mi West 9.2 mph - N/A   Overcast
2:36 PM 57.2 °F 51.8 °F 82% 30.00 in 10.0 mi West 10.4 mph - N/A   Overcast
2:56 PM 57.2 °F 51.8 °F 82% 30.00 in 10.0 mi West 10.4 mph - N/A   Overcast
3:16 PM 57.2 °F 50.0 °F 77% 30.00 in 10.0 mi WSW 12.7 mph - N/A   Overcast
3:36 PM 57.2 °F 50.0 °F 77% 30.00 in 10.0 mi West 9.2 mph - N/A   Overcast
3:56 PM 57.2 °F 48.2 °F 72% 30.00 in 10.0 mi WSW 9.2 mph - N/A   Overcast
4:16 PM 57.2 °F 50.0 °F 77% 30.00 in 10.0 mi WSW 11.5 mph - N/A   Overcast
4:36 PM 57.2 °F 48.2 °F 72% 30.00 in 10.0 mi WSW 9.2 mph - N/A   Overcast
4:56 PM 57.2 °F 50.0 °F 77% 30.00 in 10.0 mi WSW 9.2 mph - N/A   Overcast
5:16 PM 57.2 °F 50.0 °F 77% 30.00 in 10.0 mi WSW 10.4 mph - N/A   Overcast
5:36 PM 55.4 °F 48.2 °F 77% 30.00 in 10.0 mi WSW 9.2 mph - N/A   Overcast
5:56 PM 55.4 °F 48.2 °F 77% 30.00 in 10.0 mi SW 10.4 mph - N/A   Overcast
6:16 PM 55.4 °F 48.2 °F 77% 30.00 in 10.0 mi WSW 10.4 mph - N/A   Overcast
6:36 PM 55.4 °F 48.2 °F 77% 30.00 in 10.0 mi WSW 10.4 mph - N/A   Overcast
6:56 PM 55.4 °F 48.2 °F 77% 30.00 in 10.0 mi WSW 6.9 mph - N/A   Overcast
7:16 PM 55.4 °F 48.2 °F 77% 30.00 in 10.0 mi WSW 9.2 mph - N/A   Overcast
7:36 PM 55.4 °F 48.2 °F 77% 30.00 in 10.0 mi WSW 5.8 mph - N/A   Overcast
7:56 PM 55.4 °F 48.2 °F 77% 30.00 in 10.0 mi WSW 8.1 mph - N/A   Overcast
8:16 PM 55.4 °F 48.2 °F 77% 30.00 in 10.0 mi WSW 3.5 mph - N/A   Overcast
8:36 PM 55.4 °F 48.2 °F 77% 30.00 in 10.0 mi WSW 5.8 mph - N/A   Overcast
8:56 PM 55.4 °F 48.2 °F 77% 30.01 in 10.0 mi WSW 9.2 mph - N/A   Overcast
9:16 PM 55.4 °F 48.2 °F 77% 30.01 in 10.0 mi SW 5.8 mph - N/A   Overcast
9:36 PM 53.6 °F 48.2 °F 82% 30.01 in 10.0 mi WSW 6.9 mph - N/A   Overcast
9:56 PM 53.6 °F 48.2 °F 82% 30.01 in 10.0 mi SW 4.6 mph - N/A   Overcast
10:16 PM 53.6 °F 48.2 °F 82% 30.01 in 10.0 mi SW 4.6 mph - N/A   Overcast
10:36 PM 53.6 °F 48.2 °F 82% 30.01 in 10.0 mi Calm Calm - N/A   Overcast
10:56 PM 53.6 °F 48.2 °F 82% 30.02 in 10.0 mi Calm Calm - N/A   Overcast
11:16 PM 53.6 °F 48.2 °F 82% 30.02 in 10.0 mi SW 3.5 mph - N/A   Overcast
11:36 PM 53.6 °F 48.2 °F 82% 30.02 in 10.0 mi SW 5.8 mph - N/A   Overcast
11:56 PM 53.6 °F 48.2 °F 82% 30.02 in 10.0 mi Calm Calm - N/A   Overcast